Regional Weather Roundup
Issued by NWS

Home | Current Version | Previous Version | Graphics & Text | Print | Product List | Glossary On
Versions: 1 2 3 4 5 6 7 8 9 10 11 12 13 14 15 16 17 18 19 20 21 22 23 24 25 26 27 28 29 30 31 32 33 34 35 36 37 38 39 40 41 42 43 44 45 46 47 48 49 50
000
ASUS43 KDTX 071201
RWRMI
MICHIGAN HOURLY REGIONAL WEATHER ROUNDUP
NATIONAL WEATHER SERVICE DETROIT/PONTIAC MI
700 AM EST WED DEC 07 2016

NOTE: "FAIR" INDICATES FEW OR NO CLOUDS BELOW 12,000 FEET WITH NO
SIGNIFICANT WEATHER AND/OR OBSTRUCTION TO VISIBILITY.

MIZ047>049-052>055-059>063-066>070-074>076-081>083-071300-
SOUTHEAST LOWER MICHIGAN

CITY           SKY/WX    TMP DP  RH WIND       PRES   REMARKS
ADRIAN         PTCLDY    28  23  81 W8        30.00R WCI  20
6HR MIN TEMP:  28; 6HR MAX TEMP:  33;

ALMA           CLOUDY    32  23  70 SW12G25   29.91R WCI  23
ANN ARBOR      CLOUDY    30  23  75 SW8       29.97R WCI  22
BAD AXE        CLOUDY    30  23  73 W16G23    29.88S WCI  19
CARO           CLOUDY    31  23  71 SW10      29.90R WCI  23
DETROIT CITY   CLOUDY    32  24  72 SW9       29.97R WCI  24
6HR MIN TEMP:  31; 6HR MAX TEMP:  36;

DETROIT        CLOUDY    31  23  72 SW10      29.99R WCI  22
6HR MIN TEMP:  31; 6HR MAX TEMP:  35;

FLINT          CLOUDY    32  23  69 SW8       29.93R WCI  25
6HR MIN TEMP:  31; 6HR MAX TEMP:  34;

GROSSE ILE     MOCLDY    31  23  71 SW7       29.99R WCI  24
6HR MIN TEMP:  31; 6HR MAX TEMP:  35;

HILLSDALE      PTCLDY    27  21  80 W8        29.98R WCI  18
HOWELL         CLOUDY    32  23  69 SW13      29.93S WCI  22

CITY           SKY/WX    TMP DP  RH WIND       PRES   REMARKS
JACKSON        CLOUDY    30  21  69 W12       29.97R WCI  20
6HR MIN TEMP:  30; 6HR MAX TEMP:  32;

LAMBERTVILLE   PTCLDY    30  23  77 SW8       30.01S WCI  22
6HR MIN TEMP:  30; 6HR MAX TEMP:  35;

LANSING        CLOUDY    32  21  64 SW18G26   29.95R WCI  20
6HR MIN TEMP:  32; 6HR MAX TEMP:  33;

LAPEER         NOT AVBL
MASON          CLOUDY    31  24  73 W13G20    29.95R WCI  21
MONROE         MOCLDY    30  26  84 SW8       29.99S WCI  22
MT. CLEMENS    CLOUDY    32  25  76 SW7       29.94R WCI  25
6HR MIN TEMP:  31; 6HR MAX TEMP:  36;

PONTIAC        CLOUDY    31  21  66 SW9G20    29.93R WCI  23
6HR MIN TEMP:  31; 6HR MAX TEMP:  34;

PORT HOPE        N/A     31  22  69 SW7       29.85R WCI  24
6HR MIN TEMP:  31; 6HR MAX TEMP:  36;

PORT HURON     CLOUDY    32  23  69 SW8       29.94S WCI  25
TRI CITIES     CLOUDY    32  24  72 SW18      29.90R WCI  20
6HR MIN TEMP:  31; 6HR MAX TEMP:  34;

MIDLAND        CLOUDY    32  21  63 SW12      29.89R WCI  23
6HR MIN TEMP:  32; 6HR MAX TEMP:  35;

TROY           CLOUDY    33  23  67 SW7       29.97R WCI  26
SAGINAW HB     CLOUDY    32  23  69 SW13G18   29.90R WCI  22
$$
MIZ043>046-050>051-056>058-064>065-071>073-077>080-071300-
SOUTHWEST LOWER MICHIGAN

CITY           SKY/WX    TMP DP  RH WIND       PRES   REMARKS
BATTLE CREEK   CLOUDY    30  22  72 W14       29.97R WCI  19
6HR MIN TEMP:  30; 6HR MAX TEMP:  32;

BENTON HARBOR  MOCLDY    32  22  66 W24G30    30.03R WCI  19
6HR MIN TEMP:  31; 6HR MAX TEMP:  32;

BIG RAPIDS     CLOUDY    31  20  64 W16G26    29.87R WCI  20
6HR MIN TEMP:  31; 6HR MAX TEMP:  31;

COLDWATER      MOCLDY    27  23  84 SW9       30.00R WCI  18
6HR MIN TEMP:  27; 6HR MAX TEMP:  32;

FREMONT        CLOUDY    30  19  62 W13G20    29.92R WCI  20
HOLLAND        CLOUDY    32  24  72 W18G28    29.97R WCI  20
6HR MIN TEMP:  32; 6HR MAX TEMP:  33;

GRAND RAPIDS   CLOUDY    31  22  69 W18G26    29.95R WCI  19
6HR MIN TEMP:  31; 6HR MAX TEMP:  32;

IONIA          CLOUDY    31  23  71 W21G32    29.93R WCI  18
6HR MIN TEMP:  31; 6HR MAX TEMP:  32;

KALAMAZOO      MOCLDY    31  21  66 W10G21    29.99R WCI  22
6HR MIN TEMP:  30; 6HR MAX TEMP:  32;

LUDINGTON      CLOUDY    29  21  71 W17G25    29.90R WCI  17
6HR MIN TEMP:  29; 6HR MAX TEMP:  30;

MARSHALL       CLOUDY    30  22  73 W12G18    29.97R WCI  20
6HR MIN TEMP:  30; 6HR MAX TEMP:  32;

MOUNT PLEASANT CLOUDY    31  22  70 SW8       29.89R WCI  24
6HR MIN TEMP:  30; 6HR MAX TEMP:  32;

MUSKEGON       CLOUDY    31  23  72 W20       29.96R WCI  19
6HR MIN TEMP:  31; 6HR MAX TEMP:  33;

SOUTH HAVEN    MOCLDY    32  24  70 W18G25    30.00R WCI  21
$$
MIZ016>042-071300-
NORTHERN LOWER MICHIGAN

CITY           SKY/WX    TMP DP  RH WIND       PRES   REMARKS
ALPENA         CLOUDY    31  19  61 SW10G23   29.80R WCI  22
6HR MIN TEMP:  31; 6HR MAX TEMP:  35;

BEAVER ISLAND  CLOUDY    30  23  73 SW17G28   29.74R WCI  19
6HR MIN TEMP:  30; 6HR MAX TEMP:  31;

BELLAIRE       CLOUDY    31  21  66 SW17G28   29.80S WCI  20
6HR MIN TEMP:  31; 6HR MAX TEMP:  31;

CADILLAC       CLOUDY    27  20  73 SW17G23   29.81S WCI  14
CHARLEVOIX     CLOUDY    32  22  67 SW21G30   29.78S WCI  19
6HR MIN TEMP:  31; 6HR MAX TEMP:  32;

FRANKFORT      CLOUDY    31  22  71 W16G24    29.85R WCI  19
GAYLORD        CLOUDY    28  18  66 SW22G31   29.75R WCI  14
6HR MIN TEMP:  28; 6HR MAX TEMP:  30;

GRAYLING       CLOUDY    29  21  71 W13G22    29.81R WCI  19
6HR MIN TEMP:  29; 6HR MAX TEMP:  32;

HARBOR SPRINGS CLOUDY    32  24  72 SW23G31   29.75R WCI  19
HOUGHTON LAKE  CLOUDY    29  20  69 SW13G22   29.82R WCI  19
6HR MIN TEMP:  28; 6HR MAX TEMP:  31;

MANISTEE       FLURRIES  30  21  69 SW15G23   29.87R WCI  19
OSCODA         CLOUDY    31  20  63 MISG      29.83R
6HR MIN TEMP:  31; 6HR MAX TEMP:  35;

PELLSTON       CLOUDY    32  20  61 SW21G30   29.73R WCI  20
6HR MIN TEMP:  31; 6HR MAX TEMP:  33; 6HR PCP: TRACE;

ROGERS CITY    CLOUDY    32  21  65 W12       29.77S WCI  23
TRAVERSE CITY  FLURRIES  31  20  63 W14G26    29.80R WCI  21
6HR MIN TEMP:  31; 6HR MAX TEMP:  31; 6HR PCP: TRACE;

$$
MIZ007>008-015-071300-
EASTERN UPPER MICHIGAN

CITY           SKY/WX    TMP DP  RH WIND       PRES   REMARKS
MACKINAC ISLAN CLOUDY    32  23  71 SW23G32   29.70S WCI  19
6HR MIN TEMP:  31; 6HR MAX TEMP:  33;

NEWBERRY       CLOUDY    26  18  71 SW15G22   29.68S WCI  13
6HR MIN TEMP:  26; 6HR MAX TEMP:  28;

MUNISING         N/A     26  14  60 VRB7      29.70R WCI  18
6HR MIN TEMP:  26; 6HR MAX TEMP:  27;

$$
MIZ004>006-011>014-085-071300-
CENTRAL UPPER MICHIGAN

CITY           SKY/WX    TMP DP  RH WIND       PRES   REMARKS
MANISTIQUE     CLOUDY    27  16  63 W10G17    29.73R WCI  17
6HR MIN TEMP:  27; 6HR MAX TEMP:  27;

$$
MIZ001>003-009>011-084-071300-
WESTERN UPPER MICHIGAN

CITY           SKY/WX    TMP DP  RH WIND       PRES   REMARKS
COPPER HARBOR    N/A     25  17  72 W13G26    29.59R WCI  14
6HR MIN TEMP:  25; 6HR MAX TEMP:  27;

$$

ABBREVIATIONS USED IN REMARKS
   TC - TEMPERATURE IN CELSIUS
  WCI - WIND CHILL INDEX
   HX - HEAT INDEX
  VSB - VISIBILITY




USA.gov is the U.S. government's official web portal to all federal, state and local government web resources and services.